Theta_e
341 343 344 344 344 347 348 349 350 355 354 355 354 351 351 348 350 349 349 353 356 357 356 355 357 356 355 353 354 344 350 354 355 349 346 344 344 349 345 335 342 352 355
344 341 341 344 344 348 347 347 348 349 354 353 352 348 351 350 350 349 349 354 357 356 359 354 354 355 355 348 347 351 353 357 355 352 347 348 345 342 342 341 341 351 353
348 343 342 343 344 348 347 346 346 348 351 350 349 348 348 351 351 350 350 354 354 354 355 353 357 356 354 354 338 347 349 356 355 354 351 349 347 338 339 339 340 340 343
351 345 343 344 344 346 348 346 346 347 347 349 352 351 351 353 352 352 351 351 352 350 349 353 357 356 356 356 348 350 338 356 357 355 354 354 345 338 341 338 340 345 345
351 347 345 344 345 347 351 348 347 347 348 347 348 350 352 353 350 351 350 349 348 351 351 351 353 362 358 356 355 354 354 356 356 357 354 352 339 344 346 345 346 342 348
352 348 347 345 346 349 350 350 350 349 350 349 347 354 354 350 354 352 349 350 349 348 352 352 356 360 359 356 356 351 342 350 351 349 352 356 354 351 347 350 348 349 347
350 350 347 346 346 350 351 354 352 355 354 353 352 348 354 359 352 351 352 353 351 347 351 352 354 357 359 355 356 352 350 352 356 355 351 353 354 347 336 350 350 351 351
338 349 348 347 346 347 352 354 356 355 358 357 355 353 349 352 359 357 352 352 350 347 352 353 354 352 357 355 355 349 353 355 355 357 357 355 353 351 348 347 343 347 352
344 345 349 348 347 347 349 352 358 356 356 357 359 358 357 354 351 356 362 354 352 348 352 356 358 354 346 353 350 342 357 356 357 357 356 356 354 353 347 343 341 345 349
345 345 344 349 348 348 348 349 356 357 357 358 356 358 361 362 360 355 356 360 353 351 351 356 354 352 344 348 355 357 337 351 356 357 353 356 355 353 353 341 343 341 343
344 345 345 346 349 348 348 348 355 357 358 358 360 360 359 362 363 362 359 358 356 354 353 354 354 350 349 348 353 355 354 356 354 355 353 354 353 350 350 350 337 348 351
346 347 347 355 350 348 348 348 347 356 357 358 359 361 362 362 361 355 353 355 357 355 354 354 357 355 346 348 353 355 354 355 354 355 354 354 347 341 353 352 351 351 349
353 350 357 359 358 355 353 353 353 351 357 359 360 360 361 358 354 345 343 338 351 354 354 356 357 356 355 354 354 354 353 352 351 352 353 352 352 352 352 351 350 349 347
356 358 357 357 357 357 352 351 350 353 357 358 357 350 345 341 336 341 345 341 343 343 351 352 352 352 352 351 350 350 350 348 347 347 349 346 347 348 349 349 342 339 341
347 357 360 358 358 353 350 349 345 347 348 348 344 339 335 333 338 340 339 338 336 342 346 345 344 343 344 343 340 337 341 338 338 339 341 340 339 337 335 335 335 333 334
338 350 357 353 360 356 352 349 347 345 344 342 337 334 332 332 336 338 338 336 335 342 337 338 340 341 340 338 339 333 325 326 331 333 335 336 336 336 335 332 332 335 334
352 353 351 349 357 357 354 349 347 344 342 341 340 338 339 338 337 338 338 341 339 338 342 342 342 341 339 338 333 327 323 323 331 334 334 334 333 334 335 336 335 332 330
352 350 349 350 354 357 353 348 345 343 342 341 340 339 338 336 335 336 338 338 339 340 342 339 339 338 336 335 329 323 324 325 326 327 326 323 325 330 329 329 330 330 327
333 335 348 349 353 354 351 347 345 344 342 339 336 335 334 339 340 340 339 339 340 338 337 336 335 336 335 335 330 322 322 326 327 328 326 326 328 328 327 326 325 324 324
341 349 348 350 351 350 347 346 346 346 344 343 344 343 342 341 340 338 337 336 335 334 332 334 333 333 333 331 330 326 321 322 325 325 324 325 323 323 322 321 320 320 321
350 348 348 348 350 349 348 344 340 339 338 337 338 338 337 337 336 335 335 335 334 334 333 333 333 334 334 332 331 324 322 322 322 325 326 324 323 321 318 316 314 314 317
333 347 347 347 348 348 341 338 338 338 336 336 336 335 335 334 333 332 331 328 329 327 328 329 329 330 331 333 330 324 322 322 323 324 322 321 319 314 312 313 316 316 317
329 326 315 347 342 340 338 338 336 336 335 334 332 330 330 329 329 327 326 328 330 324 320 325 329 331 333 331 326 324 322 320 321 321 316 312 311 312 316 317 317 324 323
326 325 318 339 339 338 337 337 337 336 335 333 332 328 327 326 327 328 323 322 318 316 313 318 322 326 325 322 320 319 317 314 313 312 314 314 316 318 319 320 321 320 319
326 331 339 339 338 338 337 336 336 335 332 328 327 326 327 326 324 323 321 320 318 318 316 315 316 323 321 317 314 313 313 312 313 314 316 316 317 319 318 317 317 317 317
333 338 337 336 336 335 335 333 330 326 326 325 323 322 326 325 324 324 321 320 319 318 317 316 316 315 315 315 315 315 314 314 315 315 315 316 318 317 316 316 317 317 316
Wind_Speed
15 28 30 33 29 32 37 34 30 29 32 30 27 23 24 22 20 18 16 12 21 18 12 9 13 11 13 9 9 7 6 9 8 12 12 5 2 7 8 21 22 12 18
17 19 28 33 33 36 39 35 29 28 35 32 29 25 23 22 20 20 20 17 20 16 14 10 10 10 14 12 7 7 6 7 2 4 6 2 3 8 19 15 22 24 16
21 19 21 29 33 37 41 38 34 28 30 29 26 20 24 24 25 27 25 23 20 16 15 15 13 15 10 10 12 11 7 5 3 5 6 2 4 2 6 21 15 23 25
21 20 19 25 32 36 42 41 38 33 30 30 26 25 25 23 23 21 21 15 23 20 17 17 16 18 12 12 16 15 10 5 9 7 6 8 8 3 2 10 18 17 25
22 23 23 32 33 37 39 43 41 38 35 32 29 30 30 24 23 20 18 16 21 21 21 17 22 18 15 13 15 12 9 11 10 10 5 8 9 9 4 3 4 14 21
21 23 32 33 31 35 37 40 41 41 38 35 36 31 30 30 23 22 22 21 23 19 24 21 19 21 18 13 14 14 13 14 14 15 12 7 4 2 6 2 3 4 10
17 19 20 21 30 34 38 38 41 37 41 38 36 41 35 24 31 28 23 12 19 22 22 24 24 21 20 15 17 16 14 16 16 14 18 14 5 4 24 12 2 3 8
2 17 22 25 33 33 38 38 39 38 39 41 41 38 40 35 25 27 26 21 19 18 14 18 22 23 19 18 19 16 13 14 16 17 15 16 8 9 30 13 8 1 2
7 6 17 26 33 35 36 41 40 39 39 42 39 38 38 38 35 30 24 25 20 17 12 12 18 22 16 15 14 12 11 14 21 18 14 11 7 1 1 7 5 7 1
7 4 7 21 30 36 36 37 40 40 42 40 42 39 39 37 35 32 30 26 27 25 14 15 17 25 19 25 11 18 20 9 21 14 11 10 5 8 4 6 8 5 11
7 7 4 10 30 30 32 34 34 39 39 40 36 33 36 33 27 27 24 25 27 25 19 17 17 22 16 20 14 14 14 15 14 10 8 10 4 6 8 9 6 4 16
5 7 9 14 3 28 29 32 38 40 39 36 29 23 15 13 7 6 15 20 30 28 19 15 15 18 14 11 10 8 8 10 8 7 5 7 5 3 6 6 10 7 2
9 8 12 11 17 19 19 15 10 22 23 24 26 18 16 13 12 14 27 23 24 17 12 12 7 7 7 7 4 1 3 3 0 1 2 2 2 2 2 2 2 2 1
20 12 10 9 17 20 22 24 24 29 34 30 28 25 26 21 15 11 9 7 22 20 15 15 9 8 8 8 6 6 6 6 9 9 6 6 4 3 1 4 4 3 1
15 19 13 9 11 18 22 23 24 28 31 32 28 21 18 24 22 20 9 9 11 5 7 13 14 12 16 16 13 12 7 5 6 6 5 6 6 6 3 4 5 4 2
6 12 14 7 12 10 17 22 23 23 29 28 25 18 15 14 17 12 8 7 7 6 3 5 8 4 2 6 8 1 3 5 6 7 5 5 7 8 3 2 2 1 3
14 12 9 4 11 12 11 18 22 24 25 23 16 12 10 14 17 13 10 11 8 5 7 9 7 7 5 6 6 3 4 6 5 6 6 4 5 5 5 2 2 4 6
17 13 10 9 5 9 17 21 22 22 24 24 19 12 12 10 11 12 10 7 6 5 9 9 9 6 7 8 8 7 5 7 6 6 9 8 8 5 4 11 9 5 7
13 12 20 17 14 12 19 23 21 22 20 17 16 13 13 12 12 11 10 10 9 8 7 6 7 8 7 7 9 6 6 8 9 8 8 8 8 7 6 7 11 13 13
18 6 9 19 17 22 23 19 19 20 20 21 15 14 13 13 12 11 8 9 8 7 6 6 7 4 5 5 6 10 10 8 8 5 11 7 8 12 11 12 14 19 22
7 10 15 18 20 29 26 21 22 23 23 22 22 19 16 13 12 10 9 9 8 7 6 4 3 3 2 2 5 8 11 11 11 10 10 9 12 16 18 20 22 23 21
39 2 4 13 19 22 29 25 24 26 26 21 19 16 14 12 9 8 7 5 6 6 5 6 7 3 4 4 4 6 8 7 7 6 9 13 17 22 23 19 16 20 21
5 38 57 20 13 26 30 26 30 30 26 21 16 14 12 10 8 9 6 3 6 11 19 16 13 7 6 7 7 5 8 7 5 6 13 18 21 21 16 17 20 11 14
18 31 38 23 21 26 27 31 30 28 25 23 20 13 13 10 7 3 10 13 12 12 9 11 17 20 17 13 7 4 5 6 8 14 18 19 18 18 23 22 9 11 13
17 16 28 20 22 24 27 25 23 22 21 18 18 14 14 12 12 10 7 8 9 9 9 9 9 13 6 6 6 7 7 9 12 17 18 21 19 19 17 16 16 14 14
24 16 12 22 23 24 26 26 22 18 16 13 14 14 10 14 13 9 10 6 4 4 6 8 8 7 6 3 3 4 7 10 15 18 19 19 14 9 14 15 11 11 13
Wind_Direction
186 178 183 185 186 184 185 186 188 189 190 190 192 202 222 232 247 247 247 250 201 210 203 244 242 233 241 269 278 262 281 294 160 118 73 163 190 123 244 236 266 239 218
182 178 181 180 181 179 183 184 184 186 192 193 196 202 214 230 231 237 248 223 203 205 210 252 246 226 266 234 243 247 257 278 4 126 120 169 148 183 185 214 230 210 218
183 179 181 177 175 174 182 187 189 190 191 195 197 208 214 230 235 239 242 219 210 209 225 243 251 265 266 256 237 250 233 290 326 180 148 113 219 183 227 211 215 222 236
185 178 178 178 176 178 182 186 191 194 194 194 195 208 217 226 234 247 238 234 220 231 240 233 239 250 244 246 227 253 230 258 257 257 196 191 184 156 323 257 239 226 251
181 177 181 184 180 175 177 185 190 195 200 201 205 214 224 233 240 246 242 237 233 231 230 238 231 234 239 240 226 260 242 237 255 260 210 188 179 193 122 238 284 244 240
180 179 184 179 178 174 176 181 186 194 201 207 210 213 223 225 229 238 244 247 240 226 231 234 236 240 232 228 226 235 246 253 259 266 272 263 272 50 254 218 241 256 325
180 178 174 178 180 175 178 180 186 189 198 205 212 218 222 226 229 237 243 259 209 225 234 238 241 246 225 223 223 237 254 245 259 269 279 279 307 98 299 300 337 219 194
140 175 181 181 184 183 179 182 186 192 194 202 211 218 224 227 230 238 243 246 235 234 247 271 234 240 237 234 228 234 247 266 270 264 265 266 286 195 204 219 150 253 158
85 87 182 184 186 187 182 185 186 192 195 201 208 215 224 229 232 233 243 242 238 241 257 263 208 200 236 269 255 229 239 262 265 269 276 253 243 171 158 266 198 103 316
133 218 120 190 191 192 190 187 186 188 197 202 208 210 217 226 231 236 236 243 242 240 230 225 214 222 262 250 237 235 268 274 275 269 277 255 192 133 98 62 30 356 279
179 155 167 151 198 198 192 190 181 188 196 200 204 209 213 217 225 233 244 258 255 246 226 229 239 231 226 222 251 265 270 259 278 278 276 254 169 145 134 130 110 334 268
87 106 63 32 356 194 199 193 188 190 194 195 196 198 194 198 192 21 2 297 289 243 229 233 235 231 228 224 242 256 286 293 294 278 251 233 213 159 150 148 144 161 338
51 38 57 50 44 71 87 121 157 185 171 170 173 162 163 154 108 268 271 280 285 309 199 177 163 220 239 228 181 118 294 317 70 105 156 116 62 98 146 144 108 95 335
16 25 33 63 62 60 83 83 88 117 142 145 144 125 118 113 116 101 112 300 287 329 53 76 92 114 112 96 90 107 80 67 88 81 92 72 68 93 158 158 133 127 143
38 7 359 342 51 80 86 93 99 112 127 126 122 120 117 103 115 108 68 36 14 30 24 54 64 68 76 64 57 32 60 316 3 33 54 12 352 320 285 246 232 226 197
353 359 342 319 23 33 102 108 110 113 118 118 119 115 117 100 81 74 86 173 204 178 157 88 35 356 91 126 87 64 2 10 18 25 23 40 72 38 53 178 191 149 323
151 198 238 274 44 78 106 114 116 117 117 126 129 123 99 83 99 109 134 162 175 166 123 95 131 177 91 60 74 56 14 13 4 17 3 2 1 28 16 325 301 320 308
180 187 185 147 127 141 129 123 123 119 121 124 130 135 115 116 121 130 144 144 148 131 115 121 137 120 80 49 45 39 44 28 12 353 345 330 316 339 353 328 306 297 317
197 195 161 137 150 150 143 138 138 130 128 123 121 120 126 128 128 126 131 130 128 123 111 108 90 71 92 68 50 47 49 49 32 24 353 319 310 313 328 324 324 318 314
223 191 129 129 160 155 151 144 137 120 112 120 129 143 137 127 130 130 130 120 115 108 91 82 69 63 78 66 51 30 36 32 14 8 6 16 55 20 3 339 323 310 316
329 160 161 153 164 163 153 130 118 118 124 118 119 120 118 114 111 111 96 88 80 74 61 43 47 69 19 51 38 50 53 45 35 33 32 14 342 334 327 322 315 311 317
346 210 204 169 174 168 132 124 123 123 122 122 116 118 123 117 114 99 86 81 67 72 44 5 347 344 230 231 130 71 62 45 35 15 340 333 327 321 319 316 322 324 319
37 314 308 199 164 134 131 130 131 128 128 123 113 106 108 109 116 101 93 67 54 48 60 51 38 41 141 127 100 73 35 40 15 332 328 324 325 326 330 339 343 39 36
171 237 255 132 135 129 132 131 131 132 130 130 129 128 123 123 126 108 98 81 65 45 45 57 74 95 96 94 80 39 359 358 347 336 336 338 342 345 341 337 343 13 26
280 343 155 157 139 134 124 120 118 129 132 132 131 143 149 127 113 120 115 112 98 74 74 66 69 114 88 42 43 28 9 354 344 335 335 341 353 360 38 24 15 15 6
318 154 137 108 110 115 118 124 128 123 121 132 133 121 161 139 141 125 137 143 154 153 127 110 113 101 106 96 13 339 328 328 330 328 327 331 347 33 19 12 18 11 18